Hourly Weather Bolshie Lipyagi

Today, 23 July, Friday

Time Temperature Precipitation Wind Pressure Humidity
00:00 +17°C° 0 mm 2 mps 743 mmHg 76%
01:00 +17°C° 0 mm 3 mps 743 mmHg 76%
02:00 +16°C° 0 mm 3 mps 743 mmHg 77%
03:00 +16°C° 0 mm 3 mps 743 mmHg 75%
04:00 +16°C° 0 mm 3 mps 743 mmHg 75%
05:00 +16°C° 0 mm 3 mps 743 mmHg 74%
06:00 +16°C° 0 mm 2 mps 743 mmHg 74%
07:00 +17°C° 0 mm 2 mps 744 mmHg 66%
08:00 +19°C° 0 mm 2 mps 744 mmHg 57%
09:00 +21°C° 0 mm 2 mps 744 mmHg 48%
10:00 +23°C° 0 mm 2 mps 744 mmHg 46%
11:00 +24°C° 0 mm 2 mps 744 mmHg 43%
12:00 +25°C° 0 mm 2 mps 744 mmHg 41%
13:00 +25°C° 0 mm 2 mps 744 mmHg 41%
14:00 +25°C° 0 mm 2 mps 744 mmHg 40%
15:00 +26°C° 0 mm 3 mps 743 mmHg 40%
16:00 +25°C° 0 mm 3 mps 743 mmHg 43%
17:00 +25°C° 0 mm 3 mps 743 mmHg 47%
18:00 +25°C° 0 mm 3 mps 743 mmHg 50%
19:00 +22°C° 0 mm 3 mps 743 mmHg 53%
20:00 +20°C° 0 mm 3 mps 743 mmHg 55%
21:00 +19°C° 0 mm 2 mps 744 mmHg 58%
22:00 +19°C° 0 mm 2 mps 744 mmHg 58%
23:00 +18°C° 0 mm 2 mps 744 mmHg 58%

Tomorrow, 24 July, Saturday

Time Temperature Precipitation Wind Pressure Humidity
00:00 +18°C° 0 mm 3 mps 744 mmHg 59%
01:00 +18°C° 0 mm 3 mps 744 mmHg 61%
02:00 +17°C° 0 mm 3 mps 744 mmHg 64%
03:00 +17°C° 0 mm 3 mps 745 mmHg 66%
04:00 +17°C° 0 mm 3 mps 745 mmHg 69%
05:00 +17°C° 0 mm 3 mps 745 mmHg 71%
06:00 +17°C° 0 mm 3 mps 745 mmHg 74%
07:00 +18°C° 0 mm 3 mps 745 mmHg 69%
08:00 +20°C° 0 mm 4 mps 746 mmHg 63%
09:00 +21°C° 0 mm 4 mps 746 mmHg 58%
10:00 +22°C° 0 mm 4 mps 746 mmHg 53%
11:00 +23°C° 0 mm 4 mps 746 mmHg 49%
12:00 +23°C° 0 mm 5 mps 746 mmHg 44%
13:00 +25°C° 0 mm 4 mps 747 mmHg 43%
14:00 +25°C° 0 mm 4 mps 747 mmHg 41%
15:00 +25°C° 0 mm 4 mps 747 mmHg 40%
16:00 +23°C° 0 mm 4 mps 747 mmHg 45%
17:00 +22°C° 0 mm 4 mps 748 mmHg 49%
18:00 +21°C° 0 mm 5 mps 748 mmHg 54%
19:00 +20°C° 0 mm 4 mps 749 mmHg 57%
20:00 +18°C° 0 mm 3 mps 749 mmHg 60%
21:00 +17°C° 0 mm 3 mps 750 mmHg 64%
22:00 +16°C° 0 mm 2 mps 750 mmHg 65%
23:00 +15°C° 0 mm 2 mps 750 mmHg 67%

Day after tomorrow, 25 July, Sunday

Time Temperature Precipitation Wind Pressure Humidity
00:00 +15°C° 0 mm 2 mps 751 mmHg 69%
01:00 +14°C° 0 mm 2 mps 751 mmHg 70%
02:00 +14°C° 0 mm 2 mps 751 mmHg 71%
03:00 +13°C° 0 mm 2 mps 751 mmHg 72%
04:00 +14°C° 0 mm 2 mps 752 mmHg 71%
05:00 +14°C° 0 mm 2 mps 752 mmHg 71%
06:00 +15°C° 0 mm 2 mps 753 mmHg 70%
07:00 +17°C° 0 mm 2 mps 753 mmHg 65%
08:00 +18°C° 0 mm 2 mps 753 mmHg 59%
09:00 +20°C° 0 mm 2 mps 753 mmHg 54%
10:00 +21°C° 0 mm 2 mps 753 mmHg 49%
11:00 +23°C° 0 mm 2 mps 754 mmHg 44%
12:00 +24°C° 0 mm 3 mps 754 mmHg 39%
13:00 +24°C° 0 mm 2 mps 754 mmHg 38%
14:00 +24°C° 0 mm 2 mps 754 mmHg 38%
15:00 +24°C° 0 mm 2 mps 754 mmHg 38%
16:00 +24°C° 0 mm 2 mps 754 mmHg 43%
17:00 +23°C° 0 mm 2 mps 754 mmHg 47%
18:00 +21°C° 0 mm 2 mps 754 mmHg 52%
19:00 +20°C° 0 mm 2 mps 754 mmHg 55%
20:00 +19°C° 0 mm 2 mps 754 mmHg 58%
21:00 +18°C° 0 mm 2 mps 755 mmHg 61%
22:00 +17°C° 0 mm 2 mps 755 mmHg 62%
23:00 +16°C° 0 mm 1 mps 755 mmHg 63%

26 July, Monday

Time Temperature Precipitation Wind Pressure Humidity
00:00 +16°C° 0 mm 1 mps 755 mmHg 64%
01:00 +15°C° 0 mm 1 mps 755 mmHg 65%
02:00 +14°C° 0 mm 0 mps 756 mmHg 66%
03:00 +14°C° 0 mm 0 mps 756 mmHg 67%
04:00 +14°C° 0 mm 0 mps 756 mmHg 66%
05:00 +15°C° 0 mm 0 mps 756 mmHg 65%
06:00 +16°C° 0 mm 1 mps 756 mmHg 65%
07:00 +19°C° 0 mm 1 mps 756 mmHg 61%
08:00 +20°C° 0 mm 1 mps 756 mmHg 57%
09:00 +21°C° 0 mm 1 mps 757 mmHg 53%
10:00 +22°C° 0 mm 1 mps 757 mmHg 50%
11:00 +22°C° 0 mm 1 mps 757 mmHg 48%
12:00 +23°C° 0 mm 1 mps 757 mmHg 45%
13:00 +24°C° 0 mm 1 mps 757 mmHg 41%
14:00 +25°C° 0 mm 2 mps 756 mmHg 38%
15:00 +26°C° 0 mm 2 mps 756 mmHg 35%
16:00 +25°C° 0 mm 1 mps 756 mmHg 39%
17:00 +25°C° 0 mm 1 mps 756 mmHg 43%
18:00 +25°C° 0 mm 1 mps 756 mmHg 47%
19:00 +23°C° 0 mm 1 mps 756 mmHg 49%
20:00 +21°C° 0 mm 1 mps 756 mmHg 52%
21:00 +19°C° 0 mm 1 mps 756 mmHg 55%
22:00 +19°C° 0 mm 1 mps 756 mmHg 56%
23:00 +18°C° 0 mm 1 mps 756 mmHg 57%

27 July, Tuesday

Time Temperature Precipitation Wind Pressure Humidity
00:00 +18°C° 0 mm 1 mps 756 mmHg 58%
01:00 +15°C° 0 mm 0 mps 756 mmHg 59%
02:00 +15°C° 0 mm 0 mps 756 mmHg 61%
03:00 +14°C° 0 mm 0 mps 756 mmHg 62%
04:00 +15°C° 0 mm 0 mps 756 mmHg 63%
05:00 +16°C° 0 mm 0 mps 756 mmHg 63%
06:00 +18°C° 0 mm 1 mps 756 mmHg 64%
07:00 +20°C° 0 mm 1 mps 756 mmHg 59%
08:00 +22°C° 0 mm 1 mps 756 mmHg 53%
09:00 +24°C° 0 mm 1 mps 756 mmHg 48%
10:00 +25°C° 0 mm 1 mps 756 mmHg 44%
11:00 +26°C° 0 mm 1 mps 756 mmHg 39%
12:00 +27°C° 0 mm 2 mps 755 mmHg 35%
13:00 +27°C° 0 mm 2 mps 755 mmHg 35%
14:00 +28°C° 0 mm 2 mps 755 mmHg 35%
15:00 +28°C° 0 mm 2 mps 754 mmHg 35%
16:00 +27°C° 0 mm 2 mps 754 mmHg 38%
17:00 +27°C° 0 mm 1 mps 754 mmHg 41%
18:00 +27°C° 0 mm 1 mps 754 mmHg 45%
19:00 +25°C° 0 mm 1 mps 754 mmHg 45%
20:00 +24°C° 0 mm 1 mps 754 mmHg 46%
21:00 +22°C° 0 mm 1 mps 754 mmHg 47%
22:00 +22°C° 0 mm 1 mps 754 mmHg 49%
23:00 +20°C° 0 mm 2 mps 754 mmHg 50%

28 July, Wednesday

Time Temperature Precipitation Wind Pressure Humidity
00:00 +19°C° 0 mm 2 mps 754 mmHg 52%
01:00 +19°C° 0 mm 2 mps 754 mmHg 54%
02:00 +18°C° 0 mm 2 mps 754 mmHg 57%
03:00 +17°C° 0 mm 2 mps 753 mmHg 59%
04:00 +18°C° 0 mm 2 mps 753 mmHg 61%
05:00 +18°C° 0 mm 2 mps 753 mmHg 62%
06:00 +19°C° 0 mm 2 mps 753 mmHg 63%
07:00 +21°C° 0 mm 2 mps 753 mmHg 58%
08:00 +24°C° 0 mm 2 mps 753 mmHg 53%
09:00 +26°C° 0 mm 2 mps 753 mmHg 48%
10:00 +27°C° 0 mm 2 mps 753 mmHg 44%
11:00 +28°C° 0 mm 2 mps 753 mmHg 40%
12:00 +29°C° 0 mm 2 mps 753 mmHg 36%
13:00 +29°C° 0 mm 2 mps 752 mmHg 35%
14:00 +30°C° 0 mm 2 mps 752 mmHg 34%
15:00 +30°C° 0 mm 2 mps 752 mmHg 33%
16:00 +30°C° 0 mm 1 mps 752 mmHg 36%
17:00 +29°C° 0 mm 1 mps 751 mmHg 39%
18:00 +29°C° 0 mm 1 mps 751 mmHg 43%
19:00 +27°C° 0 mm 1 mps 751 mmHg 45%
20:00 +25°C° 0 mm 2 mps 751 mmHg 48%
21:00 +23°C° 0 mm 2 mps 751 mmHg 51%
22:00 +23°C° 0 mm 2 mps 751 mmHg 51%
23:00 +21°C° 0 mm 2 mps 750 mmHg 52%
Show more

We Need Your Consent

Meteoprog and our Service Providers may store and access personal data such as cookies, device identifiers or other similar technologies on your device and process such data to personalise content and ads, as well as provide social media features and to analyse the traffic.

  • Store and/or access information on your device

    Cookies, device identifiers or other information can be stored or accessed on your device for the purposes indicated above.

  • Personalised ads and content, ad and content measurement, audience insights, and products development

    Ads and content can be personalised based on a profile. More data can be added to better personalise ads and content. Ad and content performance can be measured. Insights about the audience who saw the ads and content can be derived. Such data can be used to develop or improve user’s experience, systems and software.

By clicking ‘I Agree’ you will allow the use of indicated cookies, device identifiers, web beacons or other similar technologies. Your settings can be changed in the browser on your device.

For certain purposes, legitimate interests may be relied on, rather than consent. You can read more about this in our Privacy and Cookie Policy.